Погода в Манаскенте

Россия / Республика Дагестан     42˚44′23″N   47˚41′29″E
темп.,
°C
ветер,
м/с
пор.,
м/с
влажн.,
%
обл.,
%
осадки,
мм/ч
давл.,
гПа
погр.,
м
18 января, пн
пн1800:00+6˚сз679288 0.0 1002218
03:00+5˚ссз678894 0.0 1001269
06:00+4˚сз7986100 0.0 1002405
09:00+5˚сз111579100 0.0 1005780
12:00+5˚ссз91275100 0.0 1008794
15:00+6˚ссз101469100 0.0 10081010
18:00+5˚ссз71072100 0.0 1012806
21:00+3˚ссз111369100 0.0 1013766
19 января, вт
вт1900:00+2˚сз101264100 0.0 1015706
03:00+1˚сз91163100 0.0 1016716
06:00+1˚сз7106799 0.0 1018549
09:00+1˚сз91065100 0.0 1020783
12:00+2˚ссз686090 0.0 1020869
15:00+2˚ссв225493 0.0 1019609
18:00+2˚юв3359100 0.0 1021458
21:00+2˚юв4461100 0.0 1021663
20 января, ср
ср2000:00+2˚вюв4563100 0.0 1021601
03:00+2˚юв446599 0.0 1021614
06:00+2˚вюв226792 0.1 1022496
09:00+1˚з129296 0.6 1023197
12:00+1˚с4589100 1.7 1023421
15:00с5694100 3.4 1022462
18:00+1˚ссв6784100 1.6 1025681
21:00+1˚ссв4576100 2.2 1026733
21 января, чт
чт2100:00с5582100 0.6 1027606
03:00−1˚сз6783100 0.9 1028452
06:00−1˚сз5579100 0.1 1029368
09:00−1˚ссз3380100 0.1 1031334
12:00ссв117544 0.0 1031400
15:00юв347229 0.0 1031630
18:00+1˚ю237293 0.0 1033486
21:00юз127291 0.0 1034223
22 января, пт
пт2200:00юз126685 0.0 1034157
03:00+1˚юз115668 0.0 1034130
06:00+1˚ююз22495 0.0 1034153
09:00+2˚ю23483 0.0 1034217
12:00+3˚ююв55510 0.0 1032331
15:00+4˚ююв67600 0.0 1031362
18:00+3˚ююв67630 0.0 1031318
21:00+3˚ююв68610 0.0 1031350